Regional Weather Roundup
Issued by NWS Wakefield, VA

Home | Current Version | Previous Version | Text Only | Print | Product List | Glossary On
Versions: 1 2 3 4 5 6 7 8 9 10 11 12 13 14 15 16 17 18 19 20 21 22 23 24 25 26 27 28
000
ASUS41 KAKQ 161410
RWRAKQ

REGIONAL WEATHER ROUNDUP
NATIONAL WEATHER SERVICE WAKEFIELD VA
1000 AM EDT WED APR 16 2014

Note: "fair" indicates few or no clouds below 12,000 feet with no
significant weather and/or obstructions to visibility. * = Denotes
station may not report precipitation (e.g., rain,snow,etc.),
thunder or fog.

VAZ042-051-052>054-056-161500-
NORTHERN VIRGINIA

CITY           SKY/WX    TMP DP  RH WIND       PRES   REMARKS
WASH NATIONAL  MOSUNNY   40  15  36 N18       30.44
DULLES         MOSUNNY   36  13  38 NW16      30.43
FORT BELVOIR   SUNNY     38  12  33 NW13G21   30.43
QUANTICO       SUNNY     39  13  34 N21G26    30.44
FREDERICKSBRG* SUNNY     39  18  41 N14G20    30.42R
STAFFORD*      SUNNY     39  19  44 NW16G25   30.46R
WARRENTON      SUNNY     38  23  53 N14G22    30.43R
CULPEPER*      SUNNY     39  16  38 N9G21     30.44R
MANASSAS*      SUNNY     37  18  44 NW16G24   30.44R
LEESBURG*      SUNNY     36  21  55 NW15G22   30.44R
WINCHESTER     SUNNY     36  16  44 NW16      30.42R
$$

VAZ048-049-060>072-079>083-161500-
CENTRAL AND SOUTH CENTRAL VIRGINIA...AND NORTH CENTRAL NORTH CAROLINA

CITY           SKY/WX    TMP DP  RH WIND       PRES   REMARKS
RICHMOND       MOSUNNY   40  17  39 N21G29    30.41
CHESTERFIELD*  SUNNY     39  14  35 N15G22    30.41
HANOVER        SUNNY     39  17  41 N8G21     30.42
TAPPAHANNOCK*  SUNNY     40  13  32 NW12G17   30.40R
CHARLOTTSVILLE SUNNY     38  19  46 N7        30.39
ORANGE*        SUNNY     37  21  52 NW9G23    30.42R
LOUISA*        SUNNY     37  19  48 N12G18    30.40R
FARMVILLE*     SUNNY     39  19  45 NE10G17   30.40R
SOUTH HILL*    SUNNY     39  21  48 N15G21    30.44R
ROANOKE RAPIDS SUNNY     41  27  56 N17G24    30.38R
RALEIGH        SUNNY     39  22  50 N10G20    30.38
$$

VAZ088>098-161500-
SOUTHEAST VIRGINIA

CITY           SKY/WX    TMP DP  RH WIND       PRES   REMARKS
NORFOLK        MOSUNNY   40  25  55 N18G30    30.36
VIRGINIA BEACH PTSUNNY   42  27  55 N24G35    30.34
NORFOLK NAVAL  MOSUNNY   42  23  46 N17G29    30.39R
WEST POINT*    SUNNY     42  12  29 N13G24    30.41R
NEWPORT NEWS   SUNNY     43  21  41 N12       30.38
LANGLEY AFB    SUNNY     40  22  48 N17G23    30.38
FORT EUSTIS    SUNNY     40  22  49 N12G20    30.37R
WILLIAMSBURG*  SUNNY     43  23  45 N9G21     30.39R
FRANKLIN*      SUNNY     41  25  52 N12G20    30.39R
WAKEFIELD      SUNNY     40  19  43 N10G23    30.40
$$

VAZ020-022-025-037-045-161500-
WESTERN AND SOUTHWEST VIRGINIA

CITY           SKY/WX    TMP DP  RH WIND       PRES   REMARKS
STAUNTON*      SUNNY     34  16  48 N14G21    30.41R WCI  24
HOT SPRINGS VA SUNNY     23  16  74 CALM      30.30R
LYNCHBURG      SUNNY     41  18  39 VRB6      30.40
DANVILLE       SUNNY     40  21  46 NE10      30.40
MARTINSVILLE   SUNNY     38  19  46 N10       30.42R
ROANOKE        SUNNY     37  16  42 NE12      30.40
BLACKSBURG     SUNNY     34  18  51 N7        30.37R
DUBLIN*        SUNNY     31  16  52 N5        30.36R
MARION*        SUNNY     32  16  51 E5        30.34R
HILLSVILLE*    SUNNY     28  10  47 N8        30.33R
RICHLANDS*     SUNNY     31  18  57 E6        30.31R
WISE*          SUNNY     30  18  59 NE8       30.31R
ABINGDON*      SUNNY     34  19  54 SE9       30.33R
$$

MDZ021>025-VAZ099-100-161500-
SOUTHERN MARYLAND AND THE DELMARVA PENINSULA

CITY           SKY/WX    TMP DP  RH WIND       PRES   REMARKS
PATUXENT RIVER MOSUNNY   39  17  41 N16G25    30.39
BAY BRIDGE APT SUNNY     36  16  44 N15G23    30.41R
LEONARDTOWN    SUNNY     36  14  41 N10G16    30.40R
DOVER          SUNNY     36  17  45 NW20G25   30.37
GEORGETOWN     SUNNY     38  15  39 N13G23    30.36
EASTON         SUNNY     39  19  45 MISG      30.42
CAMBRIDGE      SUNNY     41  18  38 N17       30.38R
SALISBURY      SUNNY     39  17  41 N16G25    30.36
OCEAN CITY     SUNNY     39  20  46 N18G25    30.35
WALLOPS ISLAND SUNNY     41  20  43 N13G20    30.35
ACCOMACK*        N/A    N/A N/A N/A MISG      30.36R
$$

NCZ012>017-030>032-161500-
EASTERN NORTH CAROLINA

CITY           SKY/WX    TMP DP  RH WIND       PRES   REMARKS
ELIZABETH CITY SUNNY     42  26  53 N24G31    30.34
AHOSKIE*       SUNNY     39  22  50 N21G26    30.37R
EDENTON*       SUNNY     41  25  52 N17G23    30.35R
CURRITUCK*     PTSUNNY   42  26  53 N17G23    30.34R
KILL DEVIL HLS MOSUNNY   42  30  61 N16G28    30.30R
MANTEO         PTSUNNY   42  29  61 N25G35    30.31R
CAPE HATTERAS  PTSUNNY   43  33  68 N18G32    30.28
GOLDSBORO      SUNNY     40  24  51 N15G23    30.34
WASHINGTON     SUNNY     40  26  58 N17G28    30.34R
GREENVILLE     SUNNY     41  23  48 N16       30.36R
NEW BERN       SUNNY     43  26  51 N17G28    30.35
WILMINGTON     SUNNY     46  27  47 N17G24    30.31
$$

VAZ048-161500-
ELSEWHERE

CITY           SKY/WX    TMP DP  RH WIND       PRES   REMARKS
HARRISBURG PA  SUNNY     35  11  36 NW17G23   30.42  WCI  25
BALTIMORE      MOSUNNY   36  13  38 NW13G18   30.41
ANNAPOLIS      SUNNY     38  22  52 N13G24    30.41
ANDREWS AFB    SUNNY     37  14  40 N15       30.41
WILMINGTON DE  SUNNY     36  16  44 NW17G25   30.38
PHILADELPHIA   SUNNY     36  12  37 NW21G30   30.37  WCI  25
WILDWOOD NJ*   SUNNY     36  16  44 N9G21     30.35R
ATLANTIC CITY  SUNNY     36  19  50 N16       30.32
HENDERSON NC   SUNNY     38  19  45 N12G22    30.38R
GREENSBORO     SUNNY     38  19  46 N15       30.37
ROCKY MOUNT      N/A    N/A N/A N/A MISG      30.37
FAYETTEVILLE   SUNNY     43  24  47 NE17G25   30.35
CHARLOTTE      SUNNY     41  21  44 NE15G23   30.36
$$

VAZ100-161500-
MARINE

STATION/POSITION TIME  TEMP    WIND        PRES    WAVE   SWELL
                       AIR SEA DIR/SP/G            HT/PER HT/PER
                 (UTC) (F)     (DEG/KT/KT) (MB)    (FT/S) (FT/S)
44066 TX TWR #4  1400   36 45  340/ 23/ 29 1023.5R  11/ 7
CAPE MAY NJ      1400   36 53  350/ 10/ 19 1027.0R
LEWES DE         1400   36 48   10/ 21/ 26 1027.1R
15NM E FENWICK I 1400   35 44              1026.4R   8/ 6
OCEAN-CITY-INLET 1400   36 45  360/ 19/ 23 1026.6R
WACHAPREAGUE VA  1400   39 54  360/  9/ 18 1027.1R
THOMAS POINT MD  1400   36 50  340/ 21/ 23 1029.5R
GOOSES REEF MD   1400   37     360/ 19/ 23 1030.3R
COVE POINT MD    1400   35     360/ 23/ 26 1028.7R
SOLOMONS ISLAND  1400      53                N/A
BISHOPS HEAD MD  1400   38 44  360/ 15/ 20 1027.8S
PINEY POINT MD   1400          360/ 18/ 21   N/A
POTOMAC MD       1400   37     360/ 16/ 21 1028.1R
CAMBRIDGE MD     1400   37 54  350/ 18/ 23 1028.2R
LEWISETTA VA     1400   37 52  350/ 14/ 19 1029.0R
RAPPAHANNOCK LGT 1400          360/ 25/ 31 1027.8R
STINGRAY PT      1400   38     360/ 21/ 25 1027.8R
YORK RVR RNG VA  1400   39      10/ 18/ 25 1027.4R
YORKTOWN VA      1400   38 55  360/ 17/ 19 1028.3R
JAMESTOWN VA     1400   38     360/ 12/ 19   N/A
DOMINION TERM VA 1400   40      50/  5/  9 1028.2R
KIPTOPEKE VA     1400      55  360/ 21/ 28   N/A
CHES BAY BRIDGE  1400   38 51  340/ 22/ 31 1027.9R
CAPE HENRY VA    1400          340/ 26/ 32   N/A
CHESAPEAKE LGHT  1300   38     360/ 29/ 32 1025.8R
WILLOUBY STN VA  1400   37     350/ 22/ 26 1027.0R
S CRANEY ISL VA  1400          340/ 20/ 27 1027.8R
CAPE HENRY BUOY  1300      46                N/A     7/ 7
1ST LANDING BUOY 1300      46                N/A     5/ 7   3/ 7
64NM E OF VA BCH 1400   42 62  360/ 29/ 35 1024.3R  13/ 9   8/ 9
DUCK PIER NC     1400   40 48  360/ 28/ 31 1025.0R
44056 DUCK FRF   1400      47                N/A     9/ 8   2/11
OREGON INLET NC  1400   42 56  360/ 19/ 29 1025.7R
HATTERAS NC      1400   44 60   10/ 18/ 31 1025.0R
CAPE LOOKOUT NC  1400   43     360/ 20/ 24 1025.8R
FRYING PAN SHLS  1400   45 65   30/ 25/ 31 1023.9R  10/ 8
$$



USA.gov is the U.S. government's official web portal to all federal, state and local government web resources and services.